Time,TemperatureF,DewpointF,PressureIn,WindDirection,WindDirectionDegrees,WindSpeedMPH,WindSpeedGustMPH,Humidity,HourlyPrecipIn,Conditions,Clouds,dailyrainin,SoftwareType,DateUTC
2013-01-08 00:00:00,47.2,45.0,29.83,East,90,0.0,0.0,92,0.00,,,0.00,WUHU216HW,2013-01-08 08:00:00,
2013-01-08 00:05:00,47.2,45.0,29.83,East,90,0.0,0.0,92,0.00,,,0.00,WUHU216HW,2013-01-08 08:05:00,
2013-01-08 00:10:00,47.2,45.0,29.83,East,90,0.0,0.0,92,0.00,,,0.00,WUHU216HW,2013-01-08 08:10:00,
2013-01-08 01:00:00,46.6,44.7,29.82,ESE,113,0.0,0.0,93,0.00,,,0.00,WUHU216HW,2013-01-08 09:00:00,
2013-01-08 01:05:00,46.6,44.7,29.81,ESE,113,0.0,0.0,93,0.00,,,0.00,WUHU216HW,2013-01-08 09:05:00,
2013-01-08 01:10:00,46.6,44.7,29.81,ESE,113,0.0,0.0,93,0.00,,,0.00,WUHU216HW,2013-01-08 09:10:00,
2013-01-08 02:00:00,46.3,44.6,29.81,WSW,248,0.0,0.0,94,0.00,,,0.00,WUHU216HW,2013-01-08 10:00:00,
2013-01-08 02:05:00,46.3,44.6,29.80,WSW,248,0.0,0.0,94,0.00,,,0.00,WUHU216HW,2013-01-08 10:05:00,
2013-01-08 02:10:00,46.3,44.6,29.80,WSW,248,0.0,0.0,94,0.00,,,0.00,WUHU216HW,2013-01-08 10:10:00,
2013-01-08 03:00:00,47.3,46.0,29.79,East,90,0.9,0.9,95,0.00,,,0.00,WUHU216HW,2013-01-08 11:00:00,
2013-01-08 03:05:00,47.3,46.0,29.78,East,90,0.2,0.9,95,0.00,,,0.00,WUHU216HW,2013-01-08 11:05:00,
2013-01-08 03:10:00,47.3,46.0,29.78,East,90,0.2,0.9,95,0.00,,,0.00,WUHU216HW,2013-01-08 11:10:00,
2013-01-08 04:00:00,48.2,46.4,29.77,NNW,338,1.3,1.3,93,0.00,,,0.00,WUHU216HW,2013-01-08 12:00:00,
2013-01-08 04:05:00,48.2,46.2,29.77,North,0,0.4,1.3,93,0.00,,,0.00,WUHU216HW,2013-01-08 12:05:00,
2013-01-08 04:10:00,48.2,46.2,29.77,North,0,0.4,0.4,93,0.00,,,0.00,WUHU216HW,2013-01-08 12:10:00,
2013-01-08 05:00:00,48.8,46.3,29.76,WNW,293,1.1,1.1,91,0.00,,,0.00,WUHU216HW,2013-01-08 13:00:00,
2013-01-08 05:05:00,49.0,46.4,29.72,ESE,113,0.4,1.1,91,0.00,,,0.00,WUHU216HW,2013-01-08 13:05:00,
2013-01-08 05:10:00,49.0,46.4,29.72,ESE,113,0.4,1.1,91,0.00,,,0.00,WUHU216HW,2013-01-08 13:10:00,
2013-01-08 06:00:00,48.4,46.5,29.76,West,270,0.7,0.7,93,0.00,,,0.00,WUHU216HW,2013-01-08 14:00:00,
2013-01-08 06:05:00,48.2,46.4,29.73,ENE,68,0.7,0.9,93,0.00,,,0.00,WUHU216HW,2013-01-08 14:05:00,
2013-01-08 06:10:00,48.2,46.4,29.73,ENE,68,0.7,0.9,93,0.00,,,0.00,WUHU216HW,2013-01-08 14:10:00,
2013-01-08 07:00:00,48.6,46.7,29.75,East,90,1.1,1.1,93,0.00,,,0.00,WUHU216HW,2013-01-08 15:00:00,
2013-01-08 07:05:00,48.6,46.7,29.75,South,180,1.1,1.1,93,0.00,,,0.00,WUHU216HW,2013-01-08 15:05:00,
2013-01-08 07:10:00,48.6,46.7,29.75,South,180,1.1,1.1,93,0.00,,,0.00,WUHU216HW,2013-01-08 15:10:00,
2013-01-08 08:00:00,49.3,47.1,29.76,East,90,1.1,1.1,92,0.00,,,0.00,WUHU216HW,2013-01-08 16:00:00,
2013-01-08 08:05:00,49.3,47.0,29.76,SSE,158,0.4,1.1,92,0.00,,,0.00,WUHU216HW,2013-01-08 16:05:00,
2013-01-08 08:10:00,49.3,47.0,29.76,SSE,158,0.4,0.4,92,0.00,,,0.00,WUHU216HW,2013-01-08 16:10:00,
2013-01-08 09:00:00,49.9,47.6,29.76,West,270,0.0,0.0,92,0.00,,,0.00,WUHU216HW,2013-01-08 17:00:00,
2013-01-08 09:05:00,50.0,47.7,29.76,SE,135,0.2,0.4,92,0.00,,,0.00,WUHU216HW,2013-01-08 17:05:00,
2013-01-08 09:10:00,50.0,47.7,29.76,SE,135,0.2,0.4,92,0.00,,,0.00,WUHU216HW,2013-01-08 17:10:00,
2013-01-08 10:00:00,51.5,48.3,29.75,ESE,113,1.8,1.8,89,0.00,,,0.00,WUHU216HW,2013-01-08 18:00:00,
2013-01-08 10:05:00,51.5,48.3,29.75,ESE,113,0.9,1.8,89,0.00,,,0.00,WUHU216HW,2013-01-08 18:05:00,
2013-01-08 10:10:00,51.5,48.3,29.75,ESE,113,0.9,1.8,89,0.00,,,0.00,WUHU216HW,2013-01-08 18:10:00,
2013-01-08 11:00:00,52.0,49.1,29.75,ESE,113,2.2,2.2,90,0.00,,,0.00,WUHU216HW,2013-01-08 19:00:00,
2013-01-08 11:05:00,52.2,49.1,29.75,West,270,1.1,2.2,89,0.00,,,0.00,WUHU216HW,2013-01-08 19:05:00,
2013-01-08 11:10:00,52.2,49.1,29.75,West,270,1.1,2.2,89,0.00,,,0.00,WUHU216HW,2013-01-08 19:10:00,
2013-01-08 12:00:00,52.7,49.2,29.74,SSE,158,1.8,1.8,88,0.00,,,0.00,WUHU216HW,2013-01-08 20:00:00,
2013-01-08 12:05:00,52.7,49.2,29.74,ESE,113,2.5,2.5,88,0.00,,,0.00,WUHU216HW,2013-01-08 20:05:00,
2013-01-08 12:10:00,52.7,49.2,29.74,ESE,113,2.5,2.5,88,0.00,,,0.00,WUHU216HW,2013-01-08 20:10:00,